Terug naar catalogus

IRIDIUM 117

ActiefCommunicatiePO
NORAD 42808·PAYLOAD·🇺🇸 United States

Gelanceerd Jun 25, 2017 vanaf Vandenberg Space Force Base

Loading…

Volgende Passages (komende 24 uur)

TLE

VersSource: CelesTrak SupGP

Epoch: Sep 14, 2026, 20:19 UTC

1 42808C 17039F   26257.84687500 -.00001381  00000+0 -49386-3 0  2576
2 42808  86.3975 316.1348 0002346  94.5699 272.2103 14.34218404    14

Volg IRIDIUM 117 in realtime met AllMySat

Download on the App Store